RH
7 6 6 6 9 11 10 8 12 12 11 12 11 13 12 9 8 9 12 13 13 14 14 15 17 19 16 15 24 32 32 35 38 39 49 54 53 57 57 54 51 45 43 42 37 37 37 35 34 33 31 30 28 30 33 34 35 35 36 36 32 33 36 37 40 40 38 35 32 30 31 32 30 30 34 39 41 40 41 43 44 45 44 42 36 30 27 26 24 23 23 22 21 21 20 21 22
7 7 5 7 11 12 12 10 13 15 14 13 9 11 11 11 11 11 12 15 21 18 15 20 18 19 19 15 23 33 32 34 36 39 46 48 51 56 57 56 51 47 45 41 38 36 35 34 33 33 31 29 28 30 33 36 36 36 36 36 33 33 37 40 43 43 39 35 34 32 35 38 34 32 37 41 43 42 41 42 44 44 47 46 40 34 29 30 27 21 22 20 20 21 20 21 22
10 11 8 9 11 12 17 15 13 14 19 17 12 10 8 11 14 13 13 15 26 25 22 26 23 21 21 18 24 34 37 36 37 38 43 45 48 51 52 53 50 47 42 37 34 32 32 33 32 32 31 29 29 31 34 36 37 36 37 37 34 35 38 42 46 46 39 36 35 35 39 41 36 34 37 42 43 42 41 41 43 43 44 42 39 37 34 36 31 22 22 21 20 21 21 22 21
12 13 11 9 11 13 18 20 14 12 16 16 14 14 10 11 12 14 16 18 25 30 30 27 26 25 26 31 34 41 46 45 44 41 43 45 45 46 47 50 49 45 38 32 30 29 30 32 32 31 30 28 29 31 34 37 37 37 38 38 36 37 40 43 48 46 38 36 37 39 44 42 36 35 37 39 41 42 40 40 41 41 40 38 38 39 38 38 34 26 22 20 20 21 21 22 22
11 12 11 9 12 15 17 18 16 13 12 12 14 14 10 10 12 13 16 18 21 26 27 25 29 30 30 40 45 48 52 51 51 48 46 46 46 46 47 47 45 41 35 29 28 29 29 30 31 31 29 29 30 32 36 38 38 38 39 39 38 39 42 46 48 42 36 38 40 44 47 44 37 35 35 36 39 42 41 38 38 39 36 36 38 38 37 36 35 30 23 20 21 21 21 22 22
9 11 10 8 12 16 17 15 14 15 10 10 14 13 10 11 14 14 13 12 14 17 18 22 29 32 35 42 48 53 55 54 54 52 49 49 47 46 47 44 39 37 32 30 30 28 28 30 30 30 29 30 32 35 38 39 39 40 40 39 39 43 45 45 44 38 37 41 44 47 49 46 41 38 37 38 42 45 44 41 38 39 37 36 35 33 34 34 35 32 25 21 21 21 21 22 23
8 10 9 7 11 15 18 16 13 14 10 9 12 13 12 12 13 12 11 10 11 13 13 20 27 33 41 45 49 54 56 55 53 50 49 47 46 44 42 39 37 35 33 33 32 28 28 29 30 31 29 32 35 38 39 40 41 42 41 40 42 47 45 41 39 38 41 47 48 50 53 53 51 49 47 47 50 50 48 45 42 41 41 40 36 32 30 34 38 36 30 24 21 22 22 22 24
8 10 10 9 11 13 15 14 12 12 11 10 11 13 12 11 13 11 11 11 11 12 12 17 25 36 47 51 53 55 54 54 51 48 47 44 44 43 39 38 37 35 34 35 33 29 28 29 31 31 31 34 37 40 41 42 44 43 43 44 47 46 41 38 39 43 50 54 54 55 57 59 61 61 58 56 58 58 54 50 47 44 42 41 38 34 31 34 36 37 35 29 25 23 23 23 24
8 11 12 10 10 11 12 11 10 10 11 11 12 14 11 9 10 11 11 10 11 13 15 17 23 37 48 52 56 57 56 56 54 50 47 45 43 41 40 39 37 35 34 34 33 29 29 31 32 33 35 36 39 42 44 44 45 45 47 50 48 42 39 41 46 52 59 60 58 59 62 64 66 67 64 62 64 64 59 55 53 47 42 39 37 36 33 33 34 36 36 31 28 26 23 24 25
8 10 13 12 10 11 12 11 9 8 9 11 12 13 11 8 9 10 10 10 10 11 16 20 26 33 41 51 59 59 57 55 55 52 50 47 43 41 41 39 37 35 34 35 32 29 30 31 33 37 40 40 41 42 45 47 49 51 52 50 46 43 45 50 54 59 63 62 61 63 66 67 68 68 65 66 69 66 61 59 59 54 47 42 38 37 36 35 34 36 36 32 29 27 25 25 26
10 11 13 14 12 11 12 12 10 8 8 10 13 13 9 9 10 10 9 9 9 8 11 18 29 38 41 53 61 61 55 53 55 53 50 47 44 43 41 39 38 36 35 36 33 29 30 32 36 41 44 45 45 45 47 50 53 54 53 50 49 52 55 57 61 63 63 61 61 64 66 68 67 66 64 67 70 64 60 61 63 61 54 47 40 38 39 37 36 35 35 33 30 29 27 27 27
11 12 12 13 15 13 11 11 12 12 10 11 13 12 9 9 10 10 10 9 8 8 9 15 33 45 45 51 59 59 53 51 56 53 50 48 46 43 42 41 41 39 37 36 32 29 31 35 41 46 48 50 49 51 54 52 53 55 55 56 56 58 63 66 68 69 67 62 60 62 64 67 67 65 63 66 69 60 57 60 62 60 55 49 42 38 38 36 36 34 34 33 32 31 29 28 29
11 12 13 12 13 13 11 10 14 16 13 11 12 12 10 9 11 11 10 9 8 8 10 18 31 38 43 54 61 59 56 55 57 53 50 50 45 42 42 42 41 42 41 36 32 31 34 38 44 50 51 52 55 59 61 59 57 58 59 62 64 64 68 72 75 76 72 67 65 65 66 69 66 62 61 65 65 58 57 61 62 59 53 47 41 36 33 30 31 31 31 30 30 30 30 29 30
11 12 16 14 12 11 10 10 14 16 12 11 12 12 11 11 14 15 13 12 12 8 12 22 28 32 42 57 63 60 60 59 56 54 51 48 44 42 42 43 42 43 41 37 35 34 38 41 46 51 53 58 64 66 67 66 64 63 64 66 68 69 71 75 78 78 73 67 66 66 68 70 65 62 64 64 62 61 64 66 66 62 53 46 41 37 33 29 26 27 28 28 28 28 30 31 30
12 13 15 17 16 13 11 10 13 13 12 13 13 13 13 12 15 15 15 15 16 14 17 28 31 34 44 56 63 61 62 59 55 54 49 46 45 43 43 42 42 44 43 41 39 38 41 45 51 55 60 70 75 75 74 71 69 69 69 69 70 71 73 78 79 76 73 66 64 65 67 68 66 66 69 67 65 67 69 69 68 61 52 49 47 44 39 33 28 26 26 27 27 27 28 31 32
13 12 15 17 16 15 12 11 12 13 13 13 13 14 13 13 14 14 15 16 19 20 24 36 39 40 48 57 66 64 61 59 55 52 47 46 46 42 42 41 43 47 47 47 45 44 46 50 60 68 74 81 77 77 79 77 76 74 74 75 75 73 75 80 80 77 73 68 67 67 68 67 67 70 71 71 69 69 69 67 65 56 50 51 52 51 47 40 33 28 26 26 26 27 27 30 33
12 12 14 15 14 14 14 13 14 13 13 14 13 14 13 14 15 15 19 20 23 29 32 42 48 48 52 60 68 65 60 58 53 49 46 45 44 41 41 42 45 47 48 50 51 55 57 58 72 80 83 85 76 75 79 79 79 77 78 79 77 75 76 79 78 77 73 68 68 68 68 67 68 69 70 71 67 66 65 63 58 52 51 52 52 53 52 48 41 33 28 26 26 26 27 29 34
12 12 12 12 14 15 14 15 16 14 13 15 15 14 14 13 16 17 20 20 25 38 43 44 54 57 55 60 68 65 58 56 51 47 43 39 39 41 42 43 45 49 51 54 56 62 67 66 76 82 82 85 80 80 82 81 81 80 81 78 75 76 76 75 74 74 70 67 67 66 66 68 70 71 73 74 70 67 63 59 56 52 52 52 53 53 53 53 49 43 36 29 26 26 28 30 34
12 12 13 11 12 14 14 16 16 15 15 18 16 14 14 13 19 25 24 23 24 38 49 47 57 64 59 63 67 62 56 53 49 44 38 35 36 39 42 43 47 53 52 54 59 65 74 77 80 83 83 85 84 83 81 79 78 76 74 74 74 74 72 71 71 72 70 70 69 66 67 69 72 74 75 76 74 71 65 61 58 54 54 55 56 55 53 52 50 49 45 38 31 29 30 31 33
13 13 14 12 11 13 16 18 17 17 17 18 16 13 14 12 18 26 27 32 31 38 52 54 59 64 63 64 62 58 56 50 44 39 35 34 35 39 45 47 50 55 52 53 58 62 73 79 79 80 81 83 83 81 78 75 73 71 71 73 72 70 70 69 71 73 72 72 71 68 71 73 76 77 77 75 75 73 68 65 60 56 57 58 59 58 56 53 50 52 51 48 44 40 38 36 37
15 13 13 13 12 13 17 19 19 19 18 17 16 13 12 11 15 23 26 36 43 45 53 58 59 60 62 64 58 54 53 47 40 36 35 34 37 42 48 51 54 56 54 54 56 59 66 71 73 76 78 78 79 77 75 72 69 69 70 71 69 67 69 72 74 74 72 71 71 73 76 78 78 78 76 74 74 73 69 65 62 60 60 62 63 62 62 58 55 57 55 52 53 52 48 43 41
16 14 12 12 12 15 18 20 21 19 17 15 15 14 11 12 15 20 25 35 52 57 54 57 59 57 59 63 58 51 48 43 38 37 35 34 39 47 50 52 55 55 56 55 56 60 62 63 68 72 75 77 78 74 71 71 68 65 66 68 67 66 67 70 73 72 71 73 75 78 78 78 77 76 74 73 72 72 68 66 64 64 65 68 67 65 68 66 64 67 65 61 58 57 56 52 46
16 15 12 11 12 15 18 21 22 16 14 14 14 14 12 12 12 16 22 32 50 58 57 59 60 61 60 60 58 50 45 42 38 36 36 36 43 51 51 52 54 53 53 53 55 58 59 63 67 68 71 74 76 72 69 70 68 65 65 66 66 65 64 67 69 71 74 76 77 77 75 76 75 72 71 71 70 68 68 68 68 69 70 72 69 65 67 67 67 73 76 70 62 59 61 61 56
17 15 14 13 13 14 14 18 18 14 13 13 13 13 11 12 12 14 18 27 39 46 55 62 61 62 61 57 57 51 47 43 38 37 37 40 46 48 46 48 50 46 44 48 52 55 57 63 63 63 66 68 68 67 67 67 65 65 65 66 66 65 67 69 72 75 75 75 75 75 75 74 72 71 70 68 68 66 66 69 71 73 75 74 72 69 68 67 71 77 79 75 69 67 63 62 62
17 16 14 15 14 14 14 15 15 14 14 13 11 12 12 11 12 13 14 25 36 40 53 63 59 59 58 55 53 51 49 44 39 38 38 43 46 43 41 43 42 40 40 44 49 52 54 57 58 61 62 62 62 62 63 62 62 64 65 67 68 67 69 73 76 76 74 72 73 74 73 72 70 71 68 66 64 63 65 68 70 72 73 74 72 72 72 71 73 77 79 77 76 73 65 62 61
16 17 16 15 15 15 16 14 14 15 14 12 11 10 11 11 11 13 12 20 31 39 48 55 54 52 53 53 50 49 50 45 39 37 38 43 45 42 41 42 39 40 41 42 46 49 50 53 59 62 59 57 60 61 61 60 61 62 63 67 69 69 70 72 74 73 71 69 68 68 68 69 69 67 64 60 58 60 64 66 68 68 68 68 68 70 72 72 70 71 76 77 76 73 69 64 60
15 16 16 16 15 15 15 14 15 16 14 13 12 11 10 10 11 13 12 14 22 33 37 42 47 45 47 53 49 47 51 49 41 37 39 41 42 40 40 43 42 41 42 42 45 50 54 57 59 59 57 56 59 62 61 59 60 59 60 64 65 65 67 70 69 66 65 63 63 62 61 64 64 62 60 56 56 60 62 64 66 65 64 63 65 69 71 69 67 66 70 74 75 75 74 68 61
15 16 16 16 17 16 14 14 15 16 14 12 12 11 11 11 12 12 12 13 18 26 29 32 39 38 41 52 52 48 52 53 46 40 40 40 40 39 39 42 43 42 43 46 49 56 63 63 59 59 59 59 61 62 62 61 60 60 60 62 62 61 62 62 59 56 56 57 61 59 59 63 60 59 60 57 58 59 60 62 64 61 60 60 62 67 69 70 68 66 68 73 76 76 78 73 65
15 16 16 17 17 15 13 13 15 16 14 12 13 12 11 11 12 12 11 13 18 22 23 26 32 34 41 51 54 51 51 52 49 45 41 39 40 40 40 41 42 43 44 49 51 53 60 64 64 65 65 65 65 65 65 64 62 62 61 61 62 60 57 55 53 51 51 52 55 55 59 66 62 58 60 59 59 59 59 61 63 61 58 58 60 64 68 72 71 70 72 73 74 76 77 74 68
16 16 16 17 16 14 13 13 14 15 14 13 13 12 12 11 11 12 12 16 21 21 20 23 26 36 51 61 59 52 49 47 47 48 43 40 40 39 40 41 42 43 44 49 50 50 56 64 67 68 68 68 67 66 67 65 63 61 59 58 61 58 52 51 52 52 49 47 49 50 55 61 59 57 60 61 59 58 59 61 62 62 60 59 60 63 67 71 72 73 74 73 73 75 74 73 72
15 16 16 16 16 13 12 13 13 14 14 13 13 13 13 12 12 11 12 17 22 21 21 22 25 37 55 66 66 56 47 44 45 48 45 41 40 39 41 42 43 45 47 49 48 51 59 63 64 65 67 67 66 67 67 65 63 60 57 56 57 54 50 51 52 51 49 47 47 50 51 52 54 56 57 57 56 55 56 58 60 59 59 60 59 63 68 71 72 73 72 71 72 72 73 76 74
15 16 16 15 14 12 12 12 12 14 14 13 13 13 13 12 11 11 12 16 19 21 22 23 25 35 48 57 62 56 45 43 45 47 46 42 40 40 42 42 44 47 48 48 47 52 59 60 58 62 68 68 66 67 67 65 63 61 59 55 50 50 51 52 51 50 49 48 49 52 52 51 51 54 55 52 52 52 50 53 57 57 56 57 57 60 68 72 72 71 69 70 72 71 72 75 73
16 16 16 15 14 12 12 11 11 13 12 13 12 12 13 12 11 12 12 16 21 21 21 24 24 31 45 55 61 59 48 45 44 45 46 42 40 43 43 42 45 47 47 47 47 49 54 54 54 61 69 70 67 67 65 64 62 61 58 53 50 50 50 50 50 48 46 46 47 48 50 47 43 49 53 50 50 50 50 52 57 60 57 56 58 61 67 72 72 69 70 72 72 71 72 73 71
17 16 16 14 13 12 11 10 13 15 13 14 13 12 12 11 13 15 15 18 23 23 22 25 24 31 47 57 61 62 54 46 44 46 47 42 42 44 44 44 45 46 46 46 47 49 50 49 53 64 69 68 67 65 63 62 60 57 52 48 47 47 48 50 48 46 43 43 43 45 46 41 36 41 45 45 46 49 53 55 59 60 56 54 55 56 60 66 70 70 71 73 70 69 72 72 71
17 16 17 14 12 12 11 10 13 17 16 16 16 14 12 11 14 18 17 17 22 28 26 25 25 30 47 56 54 54 52 45 45 52 52 46 44 46 45 46 45 46 46 46 47 49 50 49 54 65 68 67 66 63 61 61 58 54 48 44 42 44 48 49 47 44 41 41 42 43 44 40 37 37 37 40 45 49 52 53 55 55 50 49 50 50 54 60 66 68 69 70 69 69 73 73 72
19 22 23 20 15 11 12 12 13 16 17 17 18 17 13 11 16 21 21 19 25 33 29 24 26 28 39 51 48 49 50 46 50 56 54 50 46 45 46 45 44 47 47 46 47 50 52 54 59 65 68 68 65 63 62 59 57 52 46 43 43 48 51 47 45 44 42 43 41 40 42 43 41 39 37 38 42 47 49 49 51 50 47 47 48 50 54 56 59 62 63 66 68 68 71 73 72
23 28 29 27 22 16 15 15 14 15 17 17 19 19 15 12 15 22 26 26 28 33 29 24 27 27 31 43 49 53 50 45 50 53 51 51 47 44 47 44 44 48 49 47 49 53 57 60 65 67 67 66 63 63 62 57 54 50 47 47 48 52 51 46 44 45 44 45 43 40 42 45 44 43 44 41 39 43 47 49 48 46 45 45 47 50 51 53 55 58 60 62 65 67 68 72 72
22 28 32 30 25 21 19 17 15 16 19 19 21 20 16 13 14 18 24 29 29 30 30 26 25 25 27 38 50 51 48 48 50 50 48 48 46 45 48 46 46 48 49 51 53 57 63 66 68 69 68 63 60 61 62 59 54 51 51 52 51 52 50 46 46 46 44 43 43 44 46 47 47 48 49 47 43 40 39 42 42 40 41 41 43 47 47 50 52 53 56 58 60 64 65 66 68
22 25 30 29 26 23 20 20 17 18 21 20 23 23 17 14 14 15 18 25 29 27 28 26 25 26 26 35 46 47 51 58 53 47 46 47 46 47 50 49 47 46 50 55 56 59 66 72 73 69 66 61 56 57 60 61 57 53 53 53 53 53 50 48 48 46 44 41 41 43 45 47 47 48 49 50 51 47 39 38 39 40 41 40 41 43 44 47 49 49 51 53 56 59 60 62 65
22 23 26 26 26 25 20 21 20 20 24 23 24 27 24 17 14 17 16 19 27 27 26 26 24 26 26 33 43 47 56 60 50 45 45 46 48 48 48 47 45 48 53 57 58 59 63 71 74 69 64 58 54 55 57 59 57 55 55 55 54 53 50 48 45 44 46 46 44 43 42 43 46 47 46 46 48 47 43 42 43 42 42 41 39 41 43 44 46 48 47 49 54 55 57 61 65
23 22 24 22 24 26 22 23 24 24 28 27 25 28 28 24 21 21 17 17 27 29 28 29 26 27 29 34 45 50 55 55 48 48 49 46 47 48 46 45 47 51 55 57 60 61 63 68 72 69 63 58 55 56 55 54 56 55 53 53 54 50 45 43 39 37 42 46 46 45 42 44 48 48 43 42 40 39 39 39 40 37 38 41 39 38 41 43 46 48 48 49 49 50 55 61 63
22 20 21 19 21 27 25 24 27 29 31 29 29 29 27 26 26 26 21 21 29 31 30 31 30 32 32 37 49 53 56 56 51 51 50 46 49 49 46 48 52 54 55 57 61 67 70 73 75 70 62 60 58 56 53 50 51 53 52 50 48 43 37 40 41 39 41 44 45 45 46 49 51 49 46 44 39 35 32 31 34 34 32 34 36 37 40 42 43 45 46 48 47 49 53 57 60
20 18 17 15 18 25 26 27 30 32 32 33 36 32 27 26 25 25 24 25 28 27 30 33 32 35 36 41 52 56 57 56 52 51 49 54 63 58 51 55 59 58 58 62 67 74 76 75 76 71 63 60 56 52 51 49 46 51 52 45 41 39 39 45 47 46 49 50 48 45 46 50 52 51 48 45 39 32 27 26 33 38 33 30 32 36 40 40 40 41 43 44 46 48 51 56 60
18 18 18 15 15 21 27 30 33 34 32 36 39 33 28 28 24 26 28 27 28 27 32 36 34 37 40 45 52 57 60 52 47 49 50 62 75 67 60 61 61 61 62 64 67 71 73 73 73 70 63 57 51 49 52 52 46 48 50 44 42 44 46 49 50 51 53 48 43 41 42 46 50 50 47 47 44 37 31 28 30 38 38 36 37 38 42 44 42 42 43 44 45 45 49 57 61
18 18 22 23 18 19 27 32 35 38 36 37 40 34 29 27 25 30 32 30 30 30 35 39 37 39 45 48 46 47 51 45 44 53 55 67 78 71 67 64 59 59 60 60 59 59 65 69 68 67 61 54 52 54 58 55 47 47 52 52 49 49 51 50 49 49 44 37 36 43 49 49 48 47 48 50 49 45 43 35 29 34 39 41 43 42 44 48 47 45 45 45 44 42 46 54 57
18 17 22 29 26 20 24 31 35 39 40 38 39 37 34 31 27 30 34 34 35 36 38 41 41 42 47 49 43 45 50 44 47 56 59 70 74 68 74 75 65 62 63 64 62 61 65 65 64 66 61 56 56 58 57 53 49 49 55 57 53 52 52 49 47 41 35 34 41 50 54 49 45 46 49 52 53 51 51 42 31 32 36 38 40 42 45 48 47 45 44 44 44 43 46 51 50
19 18 22 30 33 26 21 26 32 37 38 34 34 36 37 37 34 30 32 36 39 39 40 42 44 45 49 48 46 57 60 48 51 60 63 72 66 59 77 87 79 77 77 76 74 70 68 66 67 69 63 60 60 59 57 53 51 53 56 57 55 53 49 47 43 36 31 34 41 49 51 49 48 49 49 52 53 52 52 47 37 33 34 35 36 39 43 44 42 41 40 41 43 42 45 48 44
19 19 24 31 36 32 25 24 30 35 35 29 29 35 39 39 38 35 35 38 40 39 40 44 47 47 50 49 50 63 62 51 58 66 66 73 64 58 79 87 81 80 77 74 75 73 70 67 68 69 67 64 62 61 61 56 53 57 59 59 57 53 48 46 38 31 31 33 37 44 48 49 51 50 49 51 53 53 52 49 42 37 38 38 36 38 41 41 41 40 36 36 39 39 40 43 42
21 20 24 32 38 38 34 33 32 31 29 28 30 37 39 39 40 40 42 46 45 41 42 48 50 48 45 43 46 57 59 56 62 62 61 67 61 61 77 78 73 76 71 64 67 69 67 66 68 68 68 67 63 60 59 56 55 58 60 60 58 55 50 44 35 32 36 37 39 45 47 49 51 51 52 53 55 55 52 46 41 39 40 39 36 35 36 38 37 37 36 36 37 37 37 39 39
21 20 22 31 41 44 41 39 37 33 29 30 32 35 38 41 43 44 46 49 47 44 45 48 49 47 44 42 44 53 59 56 54 53 57 61 58 63 72 68 66 71 69 60 57 58 58 58 62 65 66 66 63 61 59 58 58 60 60 57 55 52 49 43 39 39 42 43 44 47 48 49 53 53 52 54 56 54 49 43 41 41 40 35 31 31 33 33 32 34 38 38 37 37 36 36 37
20 17 22 33 42 45 42 40 41 39 35 34 33 35 41 46 48 47 44 45 46 48 49 47 46 45 45 46 52 60 60 53 51 55 58 57 57 64 69 65 62 63 62 57 52 51 50 50 53 57 60 61 61 60 61 63 64 65 65 58 51 48 47 46 45 45 46 46 46 48 49 50 55 55 49 47 48 46 42 40 38 37 33 28 27 30 32 33 33 35 36 33 32 32 33 32 32
27 17 20 32 38 40 42 42 43 42 39 38 38 41 46 49 50 50 46 44 47 51 52 51 49 46 46 48 54 60 61 57 56 58 58 57 61 68 71 70 67 63 59 57 53 51 50 50 51 53 55 55 54 54 58 65 69 69 69 63 53 48 47 50 51 49 47 47 48 52 51 51 56 56 44 36 33 32 33 34 33 31 29 28 29 31 33 34 34 34 31 28 27 25 25 26 26
38 25 21 30 35 39 43 43 41 42 41 40 42 48 51 48 48 48 46 46 50 52 54 53 50 47 48 52 52 54 58 59 59 59 59 62 66 71 75 76 76 72 67 64 58 55 57 57 56 56 55 54 53 53 56 62 67 70 71 67 58 52 51 56 57 52 48 47 50 55 53 52 57 55 41 29 25 26 30 30 28 25 26 29 31 31 32 32 32 32 30 28 26 23 22 22 22
38 35 30 30 35 38 42 44 43 41 40 38 40 47 50 47 48 48 46 48 53 56 54 51 49 48 50 54 53 54 58 60 61 63 64 65 67 71 76 79 79 76 73 73 68 64 63 61 60 60 56 54 54 56 58 60 64 70 71 68 66 61 58 60 58 53 49 49 51 53 54 55 57 51 39 27 23 25 26 24 22 20 22 29 32 32 32 31 29 28 26 25 24 23 22 22 21
33 40 38 35 41 43 41 44 46 44 43 39 35 39 46 47 49 52 52 53 56 58 55 52 51 51 52 57 61 64 64 64 65 65 66 69 68 68 72 78 79 75 73 77 78 75 71 67 65 64 64 68 68 68 68 64 65 71 72 70 70 68 64 62 60 54 50 52 51 50 54 57 54 47 35 25 22 23 22 22 21 20 23 26 28 30 31 29 25 23 21 21 21 20 19 21 20
31 38 38 37 43 45 42 44 44 42 46 43 33 37 53 59 55 55 58 57 56 57 55 53 55 54 55 60 63 64 63 67 74 71 66 68 65 61 65 73 75 73 71 73 73 75 75 72 68 66 67 74 77 77 76 73 72 74 74 72 72 71 68 66 62 54 51 53 52 50 55 57 52 46 35 25 24 23 22 23 22 21 22 23 24 27 28 27 25 23 21 20 20 20 21 22 21
33 34 35 37 40 42 43 45 42 40 45 47 39 46 66 71 61 57 59 59 61 62 59 59 61 60 59 62 62 63 67 73 78 73 69 69 66 62 63 66 68 69 70 70 68 70 70 66 65 63 61 64 70 73 76 77 77 77 75 74 75 75 74 69 61 54 52 54 52 52 55 54 51 47 38 33 31 27 25 25 25 26 26 24 25 25 25 28 28 26 24 24 27 27 25 27 29
34 34 32 33 37 42 44 46 44 40 41 44 48 60 71 70 63 61 61 61 64 68 65 64 68 67 67 69 68 71 76 75 73 72 73 74 71 69 68 68 67 67 69 71 70 69 65 61 61 61 59 61 66 69 71 74 78 78 75 73 75 78 76 68 59 55 56 55 51 51 51 51 51 48 41 39 36 29 28 28 29 31 30 28 28 28 32 34 31 29 30 33 36 33 30 33 35